KLM809 EHAM-WMKK

Flight info

Callsign KLM809
Flight time N/A
Altitude 31000
Route ARNEM3N ARNEM L620 HMM DCT NOMKA DCT OMELO DCT PEPIK DCT BUDOP DCT LUGEB/N0489F330 DCT UDROS UM859 KARDE UN644 ROLIN N644 ODILI DCT BARAD M747 SUBUT T923 ERLEV M11 RODAR A909 BIBIM B450 MAMED B449 ZAMIR/N0490F350 B449 RANAH L750 ZB G202 RK P628 IBANI L510 GURVI T1 BBS L759 MABUR/N0494F370 L759 PUT B579 VPL Y503 RINBA Y507 KAKAK KAKAK1G
Aircraft B77W/H-SDE1E2E3FGHIJ2J3J4J5M1RWXY/LB1D1

Departure

Time N/A
Airport Amsterdam Airport Schiphol (EHAM)

Arrival

Time 2026-05-07 20:41
Airport Kuala Lumpur International Airport (WMKK)
Time Latitude Longitude Altitude Speed Heading
2026-05-07 20:15 4.30435 100.96935 36840 ft 491 kts 152°
2026-05-07 20:15 4.27331 100.98446 36837 ft 490 kts 152°
2026-05-07 20:16 4.21170 101.01444 36838 ft 490 kts 152°
2026-05-07 20:16 4.18140 101.02919 36553 ft 483 kts 152°
2026-05-07 20:16 4.15109 101.04394 35573 ft 486 kts 152°
2026-05-07 20:16 4.12066 101.05876 34573 ft 489 kts 152°
2026-05-07 20:17 4.09019 101.07359 33720 ft 488 kts 152°
2026-05-07 20:17 4.05938 101.08859 32883 ft 487 kts 152°
2026-05-07 20:17 4.02904 101.10335 32067 ft 487 kts 152°
2026-05-07 20:17 3.99836 101.11829 31223 ft 487 kts 152°
2026-05-07 20:18 3.96804 101.13304 30374 ft 488 kts 153°
2026-05-07 20:18 3.93760 101.14785 29858 ft 481 kts 152°
2026-05-07 20:18 3.90768 101.16240 29384 ft 474 kts 153°
2026-05-07 20:18 3.87799 101.17684 28850 ft 468 kts 153°
2026-05-07 20:19 3.84852 101.19119 28304 ft 466 kts 153°
2026-05-07 20:19 3.81900 101.20555 27750 ft 476 kts 152°
2026-05-07 20:19 3.78944 101.22082 27173 ft 473 kts 147°
2026-05-07 20:19 3.76286 101.23976 26619 ft 466 kts 138°
2026-05-07 20:20 3.73962 101.26223 26354 ft 454 kts 132°
2026-05-07 20:20 3.71786 101.28513 26152 ft 457 kts 131°
2026-05-07 20:20 3.69593 101.30836 25899 ft 457 kts 131°
2026-05-07 20:20 3.67416 101.33147 25628 ft 454 kts 131°
2026-05-07 20:21 3.65264 101.35434 25357 ft 452 kts 131°
2026-05-07 20:21 3.63120 101.37714 25091 ft 449 kts 131°
2026-05-07 20:21 3.60963 101.40009 24824 ft 447 kts 131°
2026-05-07 20:21 3.58824 101.42287 24564 ft 444 kts 131°
2026-05-07 20:22 3.56726 101.44520 24110 ft 437 kts 131°
2026-05-07 20:22 3.54661 101.46719 23488 ft 435 kts 131°
2026-05-07 20:22 3.52605 101.48909 22895 ft 432 kts 131°
2026-05-07 20:22 3.50552 101.51096 22331 ft 428 kts 131°
2026-05-07 20:23 3.48511 101.53269 21817 ft 423 kts 131°
2026-05-07 20:23 3.46498 101.55414 21270 ft 420 kts 131°
2026-05-07 20:23 3.44529 101.57511 20725 ft 416 kts 131°
2026-05-07 20:23 3.42558 101.59611 20164 ft 413 kts 131°
2026-05-07 20:24 3.40600 101.61696 19620 ft 409 kts 131°
2026-05-07 20:24 3.38648 101.63776 19064 ft 406 kts 131°
2026-05-07 20:24 3.36707 101.65842 18506 ft 403 kts 131°
2026-05-07 20:24 3.34803 101.67871 17966 ft 399 kts 130°
2026-05-07 20:25 3.32841 101.69841 17441 ft 397 kts 136°
2026-05-07 20:25 3.30606 101.71461 16900 ft 397 kts 146°
2026-05-07 20:25 3.28117 101.72668 16310 ft 398 kts 156°
2026-05-07 20:25 3.25440 101.73418 15753 ft 399 kts 167°
2026-05-07 20:26 3.22688 101.73789 15239 ft 396 kts 171°
2026-05-07 20:26 3.19936 101.74102 14714 ft 393 kts 171°
2026-05-07 20:26 3.17230 101.74408 14192 ft 389 kts 171°
2026-05-07 20:26 3.14537 101.74712 13664 ft 386 kts 171°
2026-05-07 20:27 3.11892 101.75011 13107 ft 384 kts 171°
2026-05-07 20:27 3.09221 101.75314 12531 ft 381 kts 172°
2026-05-07 20:27 3.06575 101.75613 11958 ft 380 kts 172°
2026-05-07 20:27 3.03937 101.75911 11406 ft 377 kts 172°
2026-05-07 20:28 3.01345 101.76204 10847 ft 374 kts 172°
2026-05-07 20:28 2.98763 101.76496 10274 ft 373 kts 172°
2026-05-07 20:28 2.96199 101.76786 9981 ft 362 kts 172°
2026-05-07 20:28 2.93725 101.77065 9953 ft 343 kts 172°
2026-05-07 20:29 2.91384 101.77329 9869 ft 329 kts 172°
2026-05-07 20:29 2.89150 101.77581 9743 ft 316 kts 172°
2026-05-07 20:29 2.86982 101.77826 9612 ft 305 kts 172°
2026-05-07 20:29 2.84884 101.78064 9475 ft 294 kts 172°
2026-05-07 20:30 2.82831 101.78297 9346 ft 294 kts 173°
2026-05-07 20:30 2.80809 101.78612 9206 ft 293 kts 161°
2026-05-07 20:30 2.78972 101.79505 9054 ft 293 kts 147°
2026-05-07 20:30 2.77247 101.80615 8777 ft 293 kts 145°
2026-05-07 20:31 2.75562 101.81747 8477 ft 289 kts 145°
2026-05-07 20:31 2.73896 101.82869 8179 ft 286 kts 145°
2026-05-07 20:31 2.72240 101.83981 7894 ft 284 kts 145°
2026-05-07 20:31 2.70588 101.85089 7589 ft 285 kts 145°
2026-05-07 20:32 2.68931 101.86199 7298 ft 284 kts 145°
2026-05-07 20:32 2.67302 101.87292 6997 ft 282 kts 145°
2026-05-07 20:32 2.65667 101.88387 6692 ft 281 kts 145°
2026-05-07 20:32 2.64039 101.89479 6391 ft 281 kts 145°
2026-05-07 20:33 2.62420 101.90564 6093 ft 280 kts 145°
2026-05-07 20:33 2.60790 101.91657 5790 ft 279 kts 145°
2026-05-07 20:33 2.59172 101.92741 5494 ft 276 kts 145°
2026-05-07 20:33 2.57588 101.93803 5206 ft 274 kts 145°
2026-05-07 20:34 2.55974 101.94830 4904 ft 272 kts 154°
2026-05-07 20:34 2.54128 101.95229 4623 ft 273 kts 182°
2026-05-07 20:34 2.52299 101.94726 4455 ft 273 kts 209°
2026-05-07 20:34 2.50890 101.93433 4441 ft 277 kts 237°
2026-05-07 20:35 2.50223 101.91617 4439 ft 278 kts 265°
2026-05-07 20:35 2.50440 101.89708 4447 ft 277 kts 288°
2026-05-07 20:35 2.51382 101.88063 4438 ft 276 kts 315°
2026-05-07 20:35 2.52885 101.86884 4445 ft 263 kts 326°
2026-05-07 20:36 2.54343 101.85872 4449 ft 249 kts 326°
2026-05-07 20:36 2.55774 101.84883 4365 ft 246 kts 327°
2026-05-07 20:36 2.57185 101.83921 4054 ft 245 kts 327°
2026-05-07 20:36 2.58601 101.82968 3741 ft 245 kts 327°
2026-05-07 20:37 2.60018 101.82026 3421 ft 243 kts 327°
2026-05-07 20:37 2.61388 101.81121 3101 ft 226 kts 328°
2026-05-07 20:37 2.62685 101.80273 2803 ft 214 kts 328°
2026-05-07 20:37 2.63902 101.79474 2528 ft 204 kts 328°
2026-05-07 20:38 2.65064 101.78704 2262 ft 191 kts 328°
2026-05-07 20:38 2.65788 101.78221 2090 ft 182 kts 328°
2026-05-07 20:38 2.67129 101.77327 1781 ft 162 kts 327°
2026-05-07 20:38 2.68050 101.76712 1592 ft 160 kts 328°
2026-05-07 20:39 2.68949 101.76113 1386 ft 156 kts 328°
2026-05-07 20:39 2.69857 101.75504 1202 ft 155 kts 328°
2026-05-07 20:39 2.70759 101.74910 1020 ft 157 kts 328°
2026-05-07 20:39 2.71669 101.74299 819 ft 156 kts 327°
2026-05-07 20:40 2.72566 101.73704 607 ft 154 kts 327°
2026-05-07 20:40 2.73470 101.73116 422 ft 152 kts 327°
2026-05-07 20:40 2.74365 101.72519 227 ft 153 kts 327°
2026-05-07 20:40 2.75243 101.71937 92 ft 150 kts 327°
2026-05-07 20:41 2.76029 101.71411 81 ft 115 kts 326°
2026-05-07 20:41 2.76564 101.71053 81 ft 71 kts 326°
2026-05-07 20:41 2.76837 101.70839 81 ft 36 kts 304°
2026-05-07 20:41 2.76914 101.70696 81 ft 16 kts 286°
2026-05-07 20:42 2.76869 101.70624 81 ft 13 kts 169°
2026-05-07 20:42 2.76776 101.70675 81 ft 16 kts 147°
2026-05-07 20:42 2.76674 101.70743 81 ft 18 kts 146°
2026-05-07 20:42 2.76558 101.70821 81 ft 21 kts 147°
2026-05-07 20:43 2.76429 101.70907 81 ft 23 kts 145°
2026-05-07 20:43 2.76290 101.70998 81 ft 24 kts 152°
2026-05-07 20:43 2.76129 101.71042 81 ft 23 kts 169°
2026-05-07 20:43 2.75983 101.71094 81 ft 21 kts 149°
2026-05-07 20:44 2.75864 101.71173 81 ft 19 kts 146°
2026-05-07 20:44 2.75753 101.71248 81 ft 18 kts 146°
2026-05-07 20:44 2.75651 101.71317 81 ft 17 kts 146°
2026-05-07 20:44 2.75552 101.71384 81 ft 16 kts 145°
2026-05-07 20:45 2.75452 101.71375 81 ft 16 kts 232°
2026-05-07 20:45 2.75385 101.71281 81 ft 16 kts 234°
2026-05-07 20:45 2.75317 101.71186 81 ft 16 kts 234°
2026-05-07 20:45 2.75253 101.71087 81 ft 16 kts 238°
2026-05-07 20:46 2.75188 101.70988 81 ft 16 kts 235°
2026-05-07 20:46 2.75088 101.70982 81 ft 16 kts 148°
2026-05-07 20:46 2.74993 101.71046 81 ft 16 kts 146°
2026-05-07 20:46 2.74897 101.71111 81 ft 16 kts 146°
2026-05-07 20:47 2.74821 101.71163 81 ft 5 kts 145°
2026-05-07 20:47 2.74790 101.71184 81 ft 2 kts 146°
2026-05-07 20:47 2.74782 101.71190 81 ft 1 kts 146°
2026-05-07 20:47 2.74775 101.71195 81 ft 1 kts 146°
2026-05-07 20:48 2.74774 101.71195 81 ft 0 kts 146°